Regional Weather Roundup
Issued by NWS

Home | Current Version | Previous Version | Text Only | Print | Product List | Glossary Off
Versions: 1 2 3 4 5 6 7 8 9 10 11 12 13 14 15 16 17 18 19 20 21 22 23 24 25 26 27 28 29 30 31 32 33 34 35 36 37 38 39 40 41 42 43 44 45 46 47 48 49 50

000
ASUS43 KFSD 242202
RWRSD

WEATHER ROUNDUP FOR SOUTH DAKOTA
NATIONAL WEATHER SERVICE SIOUX FALLS SD
500 PM CDT MON JUL 24 2017

NOTE: "FAIR" INDICATES FEW OR NO CLOUDS BELOW 12,000 FEET WITH NO
SIGNIFICANT WEATHER AND/OR OBSTRUCTIONS TO VISIBILITY.


SDZ001>005-009-010-012>017-242300-
NORTHWEST AND NORTH CENTRAL SOUTH DAKOTA

CITY           SKY/WX    TMP DP  RH WIND       PRES   REMARKS
BUFFALO          N/A     97  53  22 S8        29.75F
FAITH            N/A     95  55  26 N5        29.81R
MOBRIDGE       SUNNY     86  68  54 SE20      29.79F
$$

SDZ012>016-024>037-041>051-057-063-072>074-242300-
SOUTHWEST AND SOUTH CENTRAL SOUTH DAKOTA

CITY           SKY/WX    TMP DP  RH WIND       PRES   REMARKS
RAPID CTY ARPT SUNNY     98  48  18 E12       29.82F
PIERRE         SUNNY     95  63  34 E24G32    29.72F HX  96
CUSTER         MOSUNNY   92  46  20 E15G22    30.02F
ELLSWORTH AFB  SUNNY     97  50  20 NE10      29.83F
PHILIP         SUNNY    104  53  18 VRB5      29.71F HX 102
PINE RIDGE     SUNNY    103  35   9 W7G17     29.82F HX  97
SPEARFISH      LGT RAIN  95  52  23 CALM      29.89F
WINNER         FAIR     106  47  13 S22G28    29.76F HX 102
$$

SDZ004>011-016>023-039-040-242300-
NORTHEAST SOUTH DAKOTA

CITY           SKY/WX    TMP DP  RH WIND       PRES   REMARKS
ABERDEEN       LGT RAIN  74  69  85 SE8       29.88F
WATERTOWN      CLOUDY    76  64  66 SE7       29.94F
BROOKINGS      MOSUNNY   79  63  57 SE15G22   29.96R
SISSETON         N/A     74  67  78 SE13      29.92S
$$

SDZ017-020-022-023-036>040-048>070-242300-
SOUTHEAST SOUTH DAKOTA

CITY           SKY/WX    TMP DP  RH WIND       PRES   REMARKS
SIOUX FALLS    MOSUNNY   83  65  54 S20G26    29.93F
HURON          MOSUNNY   84  66  54 SE21G26   29.87F
CHAMBERLAIN    SUNNY     95  69  42 SE22G30   29.78F HX 100
MITCHELL       CLOUDY    89  66  46 SE20G28   29.86F
YANKTON        SUNNY     87  67  51 SE23      29.89F
$$

ABBREVIATIONS USED IN REMARKS
   TC - TEMPERATURE IN CELSIUS
  WCI - WIND CHILL INDEX
   HX - HEAT INDEX
  VSB - VISIBILITY





USA.gov is the U.S. government's official web portal to all federal, state and local government web resources and services.